Theta_e
299 300 299 300 300 300 300 300 300 300 301 296 294 297 289 287 285 300 301 303 302 294 287 290 288 286 288 293 292 294 294 292 294 293 295 293 290 292 292 294 292 292 293 293 292 293 289 291 289 291 289 291 287 290 291 292 291 293 285 289 287 290 284 281 280 281 281 281 282 283 283 285 285 284 281 282 283 282 280 275 275 279 273 274 273 273 281
299 299 299 300 300 300 300 300 300 300 301 297 297 291 288 289 288 291 300 304 301 290 281 282 285 287 290 290 290 294 293 293 292 292 294 293 291 292 292 294 297 293 295 295 291 294 287 290 290 285 285 289 288 291 291 293 291 292 289 290 291 286 283 284 275 274 276 277 282 282 283 284 280 281 282 283 283 282 279 276 276 276 277 277 275 276 280
299 299 299 299 300 300 300 300 300 300 301 300 296 288 290 289 292 292 295 301 299 287 289 287 286 286 286 287 287 289 292 294 295 294 293 296 294 294 293 295 296 292 294 294 295 295 292 288 290 284 285 285 285 291 290 294 292 292 293 295 292 284 285 284 278 275 273 271 273 277 280 282 281 280 283 283 286 283 281 279 276 277 280 280 277 281 283
299 299 299 299 299 300 299 300 300 300 300 300 296 292 289 285 278 287 290 295 294 293 295 292 288 286 286 285 287 290 289 293 295 296 295 296 295 295 295 294 296 292 293 291 291 291 290 291 284 286 286 284 285 289 291 293 292 293 295 294 292 285 285 286 285 283 280 282 282 284 286 283 282 283 285 284 285 285 285 279 275 280 279 278 283 285 282
299 299 299 299 299 299 299 300 300 300 300 300 295 292 288 290 282 285 282 290 291 289 292 290 290 286 289 284 288 286 288 291 292 297 291 295 294 291 293 292 291 289 291 290 290 292 288 288 289 286 286 283 284 288 291 292 292 294 293 293 289 285 284 286 286 286 284 281 281 284 288 285 286 284 283 284 283 283 285 283 282 283 278 278 284 285 284
298 299 299 299 299 299 299 299 300 300 300 300 296 286 289 280 286 289 292 288 284 285 286 290 289 290 290 286 290 287 287 289 287 293 295 296 295 292 291 292 293 292 292 292 288 289 287 287 287 287 285 285 285 287 289 291 292 293 291 293 290 284 285 286 284 283 280 281 284 286 287 287 286 286 284 282 284 283 284 284 287 284 284 282 284 285 284
298 299 299 299 299 299 299 300 299 300 299 299 293 285 288 288 289 289 293 286 290 289 290 291 290 288 289 287 289 287 287 286 291 291 290 292 292 294 287 290 293 293 294 292 288 290 285 284 288 287 285 287 286 285 286 289 289 292 290 291 288 288 283 284 285 281 281 280 282 284 286 284 285 284 284 285 283 284 286 287 288 286 286 288 284 283 284
298 299 299 299 299 299 299 299 299 299 299 298 291 288 284 284 284 284 292 290 290 292 291 290 289 286 289 285 287 288 288 287 291 292 291 286 290 295 291 292 293 293 293 293 289 290 292 291 287 289 289 286 288 286 287 287 287 290 288 288 284 288 280 286 281 277 278 280 281 282 285 285 284 283 283 284 284 285 286 287 287 285 286 287 285 283 285
298 298 299 299 299 299 299 299 299 299 298 291 288 287 290 290 293 292 288 286 288 290 290 288 288 286 288 286 288 289 289 289 292 291 294 292 290 292 291 293 293 293 293 292 292 294 294 294 293 292 292 287 290 288 284 290 286 287 286 285 285 286 278 280 283 279 276 279 280 280 282 283 284 283 283 283 283 282 284 284 285 284 285 286 284 284 285
298 298 298 299 300 299 299 299 299 298 298 291 289 285 292 292 294 296 292 286 290 287 289 289 288 284 288 288 289 289 289 292 293 289 293 294 295 295 294 294 293 291 292 291 293 296 296 296 293 295 295 292 289 288 290 291 289 287 286 283 285 282 281 280 281 280 276 278 279 282 283 282 279 282 284 285 285 286 286 287 287 288 289 285 283 285 286
298 298 298 299 299 300 300 299 299 299 296 288 286 286 290 290 289 291 293 286 288 289 288 287 287 287 290 291 291 293 292 293 293 289 288 293 294 296 296 294 292 291 291 294 295 294 292 292 292 293 292 292 291 291 293 292 292 291 288 286 283 285 285 282 285 281 276 277 280 281 280 275 278 290 290 287 285 285 284 285 287 288 289 289 290 290 285
297 298 298 299 299 299 299 298 299 299 297 293 291 287 291 295 294 293 290 284 286 290 288 286 287 289 289 290 292 291 291 292 292 295 291 292 294 295 295 294 294 289 293 295 295 295 295 295 294 293 292 290 290 291 292 291 291 293 293 290 285 286 285 281 282 278 275 278 280 280 276 277 289 289 289 290 290 289 288 289 289 289 289 289 289 289 289
297 298 298 299 299 299 299 298 299 298 298 294 291 286 291 294 294 292 292 288 286 287 285 287 291 291 291 291 291 292 294 294 296 296 295 294 292 293 295 294 293 295 296 296 296 295 290 286 287 288 287 288 289 289 290 290 290 291 293 293 289 286 285 281 277 278 277 277 281 274 276 286 285 282 285 288 291 290 288 286 288 287 287 289 289 291 292
297 298 298 299 299 299 299 298 298 298 298 296 291 290 292 293 292 293 292 288 287 289 289 288 290 290 291 291 291 292 294 293 295 296 293 294 293 293 295 297 297 297 298 298 294 291 287 287 284 285 282 285 284 284 284 286 284 287 290 291 292 289 288 286 277 275 278 277 280 279 281 282 286 285 283 284 284 283 285 282 286 288 289 289 290 291 291
297 298 298 299 299 298 298 298 298 298 297 297 293 293 293 292 293 295 294 293 287 288 290 285 288 290 291 291 292 291 291 291 292 291 290 292 294 293 295 295 297 298 298 296 290 290 284 284 281 280 280 282 278 278 283 281 285 283 283 282 283 290 287 286 283 274 275 276 269 271 275 276 282 287 285 288 286 288 289 285 286 290 290 291 290 290 290
297 297 298 298 298 298 298 298 298 298 297 297 294 293 292 293 292 293 295 292 290 284 287 292 293 292 291 291 293 291 290 290 290 289 287 287 287 289 290 296 297 298 296 291 288 288 286 284 281 282 279 281 282 280 274 279 280 282 281 283 284 283 283 286 286 277 272 273 275 275 274 279 283 282 285 288 288 289 287 283 282 290 290 289 290 290 290
297 297 298 298 298 298 298 298 298 298 297 297 293 292 291 294 290 291 295 292 291 287 292 294 294 294 292 290 292 292 292 290 291 287 285 287 288 289 289 295 297 297 295 292 288 288 285 283 285 284 280 283 281 278 280 278 277 278 280 282 281 283 280 282 275 270 278 279 275 276 275 281 281 281 282 286 288 290 287 272 279 288 288 290 289 290 290
296 297 297 298 298 297 297 297 298 298 297 298 296 291 291 293 293 291 294 290 287 281 284 288 294 291 290 291 290 292 292 291 291 290 290 285 287 288 289 291 290 293 296 290 288 287 286 284 283 282 281 284 285 284 278 280 279 280 281 282 276 278 275 278 280 279 276 281 271 268 276 282 280 282 285 286 291 289 280 277 285 285 288 289 290 290 291
296 297 297 297 298 297 297 297 297 297 297 297 296 292 291 293 293 292 293 290 290 285 286 286 289 295 291 295 293 290 291 294 292 287 285 284 285 290 291 290 293 289 290 289 289 287 286 283 285 283 281 277 281 282 283 280 281 282 284 278 274 274 278 273 275 275 277 278 275 277 277 283 281 281 286 288 288 275 280 285 283 285 284 287 289 290 290
296 296 297 297 297 297 297 297 297 297 297 297 295 290 291 293 293 293 297 286 285 284 284 285 286 289 286 293 290 292 292 293 293 290 288 286 288 290 290 287 286 287 287 289 287 286 287 283 285 278 281 283 282 284 279 280 279 282 281 285 283 282 281 278 280 276 271 269 276 269 273 283 286 285 284 284 285 285 284 282 283 284 285 285 285 286 284
296 296 296 296 297 297 297 297 297 297 296 297 296 290 290 293 292 293 295 292 288 285 283 287 288 287 287 289 291 296 296 292 292 291 291 291 292 292 284 285 288 289 287 289 285 286 287 284 281 278 280 284 281 279 281 282 276 280 284 285 284 286 282 278 281 283 280 278 276 279 284 285 288 289 287 287 286 283 286 287 286 284 284 285 286 283 285
295 295 296 297 297 296 297 297 297 296 296 296 296 292 288 291 291 293 294 294 287 284 285 287 289 288 289 290 289 288 291 295 294 295 293 289 290 288 287 292 290 289 289 290 286 281 281 281 276 275 279 278 277 284 284 278 278 279 275 280 279 286 286 287 282 286 284 282 285 283 281 286 289 292 290 292 289 284 284 286 288 287 284 282 287 287 284
295 295 295 297 297 297 297 297 297 296 295 295 293 288 286 287 288 291 293 287 289 288 288 287 289 290 290 290 290 291 290 290 291 290 298 293 288 284 284 291 289 286 285 288 291 288 286 287 284 281 278 278 284 275 276 277 279 275 282 284 280 286 287 279 284 282 282 281 281 281 278 281 286 283 281 291 291 284 283 285 288 286 287 286 289 286 287
295 295 295 296 296 296 296 296 296 296 295 293 290 288 287 288 287 289 291 290 288 284 284 286 285 282 283 284 288 290 291 290 291 291 291 296 290 286 286 288 290 286 285 287 288 290 285 285 283 281 286 282 282 279 282 277 277 281 283 280 282 283 282 284 283 280 285 283 287 282 283 282 285 288 285 286 289 285 282 283 286 285 284 286 285 287 287
294 294 295 295 295 296 296 296 296 296 296 294 290 290 290 287 288 287 290 286 286 287 279 280 283 287 286 287 290 288 290 292 293 291 291 291 297 292 290 292 289 291 290 288 285 289 286 285 281 282 286 284 287 285 285 285 277 279 283 283 282 284 284 287 277 283 285 287 286 284 284 283 285 286 286 287 287 283 281 281 281 282 282 284 282 282 283
294 294 295 295 295 296 296 296 295 295 295 293 290 285 285 285 288 289 289 289 285 285 282 278 281 288 288 288 285 288 291 291 291 292 292 292 291 295 293 289 289 288 286 285 289 291 284 283 280 280 287 284 286 282 282 284 282 283 287 285 286 284 286 285 283 283 285 284 280 281 284 286 285 285 283 284 287 288 283 281 281 281 284 283 280 279 282
294 294 294 295 295 295 296 296 296 295 295 292 287 286 286 288 290 286 282 282 288 281 280 278 283 284 285 286 287 289 289 290 292 292 293 293 293 294 294 295 291 289 290 286 286 287 284 283 285 285 287 285 286 279 280 280 283 283 281 282 284 286 285 285 284 283 282 285 285 285 284 281 285 286 288 287 285 286 287 282 282 282 282 282 283 278 277
293 294 294 294 294 295 296 296 296 296 295 292 288 286 287 288 288 289 289 285 284 284 281 280 282 284 287 285 288 289 289 291 291 293 292 292 293 295 295 293 293 291 288 289 286 286 285 287 287 282 281 283 287 281 279 279 280 279 278 284 287 288 287 286 285 285 285 287 285 290 291 290 289 291 289 288 285 285 287 285 285 284 282 283 283 281 280
293 293 294 294 294 295 295 295 296 295 294 290 285 285 286 290 289 290 290 288 286 287 285 284 285 282 281 285 288 286 289 290 291 292 291 291 292 292 292 292 291 290 291 291 288 286 285 285 284 284 283 286 286 279 280 279 280 283 286 287 287 284 287 290 291 290 289 287 288 289 289 290 287 287 288 289 286 286 287 287 285 284 283 282 282 283 283
292 293 293 294 294 295 295 295 295 295 293 286 285 283 283 286 290 288 290 289 283 284 286 283 280 281 283 283 283 285 285 288 290 291 290 290 289 288 288 289 288 288 287 287 289 287 283 283 281 282 283 285 283 281 281 275 278 284 282 284 289 284 284 289 285 290 287 282 286 287 288 282 279 282 283 284 283 286 286 286 284 282 281 282 282 279 280
292 293 293 294 294 294 294 295 294 294 292 286 283 279 277 275 283 290 290 288 286 283 282 283 279 281 280 284 283 283 284 285 286 287 287 287 288 288 288 288 286 288 286 285 285 285 285 282 282 284 283 287 284 282 280 278 278 277 282 285 287 286 285 285 278 280 281 282 281 279 279 280 280 281 284 282 280 282 280 278 278 280 281 280 279 280 280
292 293 293 293 294 294 294 294 294 293 288 285 282 279 280 282 286 290 290 289 287 284 283 281 278 277 278 282 282 285 284 284 284 285 285 286 286 287 288 287 286 288 288 284 284 284 281 284 283 285 284 287 283 276 276 278 282 281 280 282 283 282 282 282 281 280 281 284 286 286 285 284 281 286 286 282 279 280 281 279 279 279 279 278 277 277 277
292 293 293 293 293 293 294 294 294 292 287 290 292 291 290 292 293 292 288 287 284 278 280 282 279 279 277 278 283 284 285 285 285 285 285 286 283 285 285 285 285 286 290 288 282 282 284 282 283 285 284 284 281 276 276 279 279 279 280 279 279 280 280 279 280 281 282 278 281 286 284 287 286 278 277 278 279 279 280 279 278 279 280 281 280 279 278
292 292 293 293 293 292 292 293 293 292 290 285 281 283 286 292 292 292 289 286 282 281 280 278 275 275 275 281 279 283 284 281 281 284 284 285 284 285 284 285 285 286 286 285 284 284 282 282 282 282 284 280 278 279 279 278 277 278 278 278 278 279 280 281 280 280 277 277 276 278 281 281 279 278 279 279 278 277 278 278 279 280 279 280 279 279 277
292 292 292 292 292 292 291 290 284 284 280 282 281 284 288 293 293 290 286 284 279 277 277 277 278 275 273 273 275 279 283 282 279 281 282 283 285 283 285 284 285 284 284 287 282 281 281 281 284 283 280 279 279 279 277 277 278 277 278 279 277 280 282 283 278 276 276 276 278 279 280 282 283 280 279 277 277 278 279 277 278 281 280 278 277 275 275
291 291 291 291 290 289 284 285 283 282 280 279 280 287 292 292 291 286 286 285 283 276 275 273 274 272 276 276 275 278 285 280 281 279 281 283 281 283 281 284 281 281 284 281 280 281 281 285 285 280 280 279 277 277 277 278 279 279 279 279 279 281 281 283 279 277 277 278 278 279 280 281 282 280 278 277 277 276 277 278 276 279 279 278 276 274 274
291 290 290 287 281 280 276 276 282 280 280 284 288 292 291 289 285 285 284 283 284 283 276 274 273 272 273 274 277 277 281 276 280 278 279 278 278 280 280 281 279 283 279 279 279 280 283 286 282 280 277 278 278 280 279 278 279 279 279 279 278 278 279 279 280 280 279 277 277 278 279 279 278 278 278 277 277 276 278 278 278 279 279 277 274 275 273
289 288 278 276 276 273 272 275 277 284 290 288 287 283 279 279 275 276 278 276 278 282 277 277 271 271 273 274 272 281 280 274 278 277 277 281 279 275 280 280 280 282 275 278 279 284 280 279 278 279 278 281 281 279 278 277 277 278 278 277 277 279 280 280 281 282 280 279 277 277 278 278 278 278 279 276 276 276 275 273 273 275 276 275 275 274 273
282 276 273 272 274 273 274 278 286 289 285 284 280 274 272 272 273 271 271 271 275 273 275 274 271 271 274 275 275 282 279 277 274 276 275 279 278 275 279 276 281 279 274 277 278 285 277 277 277 277 277 279 279 279 279 278 278 278 278 278 278 278 279 279 279 281 283 282 281 279 281 281 280 278 277 276 275 274 273 274 275 275 275 274 273 272 273
276 274 271 272 273 276 282 285 287 281 281 274 270 270 267 270 271 268 272 270 270 271 273 272 272 272 275 275 275 274 282 277 273 272 274 277 281 276 278 276 277 277 272 272 276 281 279 276 276 276 275 279 277 278 277 276 274 273 274 276 277 277 278 279 278 278 278 277 277 277 278 280 281 280 278 278 277 275 274 273 273 273 272 272 272 272 271
278 273 274 274 276 274 276 278 275 271 270 265 265 267 267 268 267 267 270 267 267 267 270 271 273 273 276 276 277 274 279 280 277 278 277 274 280 279 274 272 279 272 270 270 276 276 274 273 273 274 276 277 275 277 276 274 273 272 271 272 275 276 275 274 275 277 277 275 274 273 273 275 277 277 277 276 275 273 271 270 270 270 270 270 269 269 269
282 279 277 275 276 276 274 272 268 267 265 264 265 262 262 263 264 264 266 266 266 268 272 273 272 272 273 275 274 276 275 276 276 276 275 272 279 274 272 270 271 271 268 273 275 272 274 271 273 272 274 270 269 269 270 270 269 267 267 269 271 272 273 272 270 271 273 272 270 269 269 270 270 270 272 272 271 270 270 269 267 267 267 267 267 266 266
285 280 276 265 267 266 267 268 268 265 263 261 263 261 261 262 264 265 264 267 265 267 271 272 273 280 278 277 275 277 277 280 277 272 272 272 278 273 268 267 269 267 270 273 273 272 270 270 269 270 270 266 264 263 264 265 268 267 265 265 267 269 269 269 268 267 267 268 267 266 265 264 264 266 267 266 265 264 264 265 265 265 265 264 264 263 263
279 274 267 260 265 266 268 265 270 266 263 260 261 260 260 260 263 261 262 265 266 267 271 273 274 274 271 275 274 276 274 277 278 270 269 270 270 268 268 266 268 272 273 268 269 270 270 270 271 270 267 264 262 260 260 261 262 266 264 263 263 265 267 267 266 266 267 267 266 266 264 263 262 262 261 262 263 263 262 262 263 264 264 263 262 262 262
268 262 257 260 262 266 265 262 264 263 260 262 267 257 259 262 262 258 263 264 265 267 272 271 272 273 270 270 272 272 275 271 276 271 268 269 267 268 267 268 267 265 267 267 265 266 268 267 268 264 260 260 259 258 258 258 258 261 263 260 259 259 261 261 262 262 262 262 262 263 262 262 260 259 258 258 258 259 260 260 261 262 262 261 261 261 260
262 261 260 260 261 260 257 259 258 260 263 262 258 256 256 258 260 261 262 260 262 266 269 270 271 272 270 268 272 270 264 266 269 267 264 264 267 264 268 267 267 265 263 262 264 266 268 269 264 260 258 257 257 257 256 256 256 258 259 257 257 257 257 258 259 259 260 260 260 260 260 260 259 258 257 257 257 257 257 257 258 259 261 260 259 259 259
264 261 254 257 259 257 257 257 258 260 260 259 260 258 260 260 260 262 260 259 261 263 264 265 267 270 271 267 267 267 265 262 267 267 266 264 264 266 268 267 264 262 264 261 261 263 266 265 260 257 255 255 255 255 255 254 254 254 255 256 255 255 256 256 256 256 257 258 258 258 258 258 259 258 258 256 256 255 256 256 256 257 258 258 258 258 258
260 259 258 257 256 255 256 259 259 260 259 258 257 257 258 259 261 262 263 261 261 263 265 267 269 267 268 269 270 268 263 260 267 267 266 267 268 262 261 260 258 258 257 263 265 265 263 258 255 255 254 254 253 253 253 253 253 253 253 253 254 254 253 253 254 254 255 255 256 256 256 256 257 257 256 255 254 254 254 254 255 255 255 256 256 256 256
264 261 261 258 255 252 255 257 261 263 263 259 255 257 257 260 260 260 260 260 260 262 264 266 267 267 265 265 264 267 266 265 264 264 262 259 261 262 261 258 260 261 262 262 264 260 257 253 252 253 253 252 252 251 251 252 251 251 251 251 252 252 252 252 252 253 253 253 254 254 254 255 256 256 256 255 254 253 254 254 253 253 253 253 253 254 255
260 256 256 253 255 255 255 256 262 261 261 259 256 256 255 255 258 258 259 258 259 259 266 270 273 271 266 265 263 261 262 259 261 264 262 260 259 257 258 256 257 263 263 259 258 255 252 251 251 250 251 251 251 250 250 250 250 250 250 250 251 252 252 252 252 252 251 252 252 252 253 254 254 254 254 254 254 254 253 253 252 252 252 252 252 252 253
259 256 254 252 253 254 255 255 254 256 258 257 255 254 255 254 256 257 259 256 256 260 264 263 264 261 263 262 260 258 261 264 263 258 262 262 258 253 258 262 261 259 258 254 252 251 250 250 249 248 249 249 250 249 249 249 249 249 249 249 249 250 251 251 251 251 251 251 251 251 251 251 252 252 253 254 254 253 254 254 252 251 251 252 251 250 251
259 257 255 253 252 253 252 254 255 254 253 253 252 253 254 254 257 257 258 255 259 267 262 258 260 261 261 263 262 260 263 262 259 260 261 257 254 256 256 256 257 253 253 253 251 250 248 248 249 248 247 248 249 248 248 248 248 248 248 248 249 249 249 249 250 250 251 251 250 250 250 251 251 252 254 254 253 253 252 252 252 251 250 251 250 250 249
Wind_Speed
5 6 5 5 5 6 5 5 5 6 4 1 3 3 4 7 9 3 15 18 18 13 10 10 12 12 10 7 12 7 7 7 11 14 12 9 1 2 3 9 7 4 7 13 12 15 9 19 18 12 7 8 4 10 19 18 15 8 2 8 4 6 6 8 3 2 4 3 1 1 1 1 1 4 2 5 7 6 6 3 6 8 2 1 1 3 6
5 5 6 5 6 6 6 6 6 7 7 3 3 5 4 7 7 1 3 16 18 12 12 15 13 9 9 16 10 9 5 10 11 14 16 8 5 6 6 2 7 10 9 15 18 18 9 9 7 2 1 5 3 18 18 25 14 15 12 16 12 6 3 9 7 4 2 4 3 2 1 1 3 4 3 3 3 4 2 4 2 2 9 8 7 12 6
6 6 6 6 6 6 6 6 7 8 9 7 4 4 3 4 3 7 7 10 13 14 11 14 15 17 16 14 18 12 9 10 15 16 15 9 7 7 8 10 11 3 7 15 14 19 10 10 6 4 3 3 0 18 20 23 16 7 7 7 5 5 7 11 11 13 12 7 9 16 17 13 2 1 8 9 15 12 8 8 3 6 8 13 8 14 2
6 6 6 6 6 6 7 7 8 9 9 10 5 4 3 7 4 6 8 10 13 11 11 13 17 18 17 17 16 16 11 6 15 17 14 16 11 11 8 3 4 8 15 12 10 13 1 9 4 6 6 3 1 8 18 19 12 10 15 12 8 3 1 7 11 16 17 18 5 7 14 7 10 12 15 12 7 11 7 5 4 15 4 7 17 15 2
6 5 6 6 6 7 8 8 9 9 9 10 6 5 5 1 8 7 7 7 15 11 12 12 13 17 19 15 14 17 17 9 10 20 10 14 6 1 4 5 9 4 15 13 11 15 4 5 13 5 8 3 2 6 16 14 12 17 13 12 6 4 5 10 11 12 3 2 2 5 17 17 16 11 11 10 10 11 13 13 19 8 11 12 15 9 13
5 5 6 6 7 8 9 9 9 10 9 11 6 7 5 9 5 8 7 6 10 18 15 17 17 15 23 16 17 21 21 17 15 13 9 11 10 9 2 12 15 18 20 17 12 12 4 6 13 10 4 8 4 7 6 13 15 17 7 11 9 7 11 13 7 6 5 3 8 12 10 11 10 15 13 15 18 15 18 20 19 12 14 21 8 11 18
5 6 6 7 8 9 10 11 10 11 11 9 6 6 5 7 2 6 6 11 7 22 22 27 23 23 26 13 20 22 23 19 17 13 9 8 13 13 10 16 16 18 15 14 12 18 12 10 7 12 11 17 15 10 2 6 6 15 8 11 5 7 7 5 8 3 3 6 1 4 13 5 7 10 13 15 13 20 24 25 21 14 15 20 4 9 14
6 6 7 8 10 10 11 12 11 11 12 8 9 9 8 9 9 6 9 11 12 15 19 24 25 21 26 19 18 18 21 20 13 12 19 12 15 13 14 20 19 20 21 18 16 22 23 24 21 18 24 15 15 16 18 14 6 8 12 8 2 10 3 8 4 4 1 3 4 3 8 9 6 5 8 11 16 20 23 21 13 9 14 19 8 7 18
7 7 9 10 12 13 14 14 13 13 9 6 8 8 11 9 9 10 9 13 14 15 18 19 24 19 21 20 17 17 23 21 17 11 11 22 17 18 24 23 20 19 20 20 21 24 28 25 30 25 25 22 16 14 5 15 17 10 7 5 1 4 2 1 6 6 1 1 4 3 4 4 7 8 11 15 18 18 17 14 9 9 21 19 9 13 22
7 9 10 12 13 15 16 15 15 14 11 7 4 12 8 11 9 10 11 14 14 17 16 21 22 22 21 19 19 17 26 19 18 12 11 17 22 25 26 24 20 19 24 26 28 29 27 16 5 11 9 6 9 5 11 15 18 11 10 3 6 4 5 6 6 8 3 1 2 8 6 6 1 9 20 25 18 13 9 13 15 20 21 12 11 25 7
8 9 11 12 14 16 17 18 16 17 6 10 8 9 9 12 13 14 13 16 13 17 18 21 27 18 21 24 23 19 23 26 23 20 10 12 13 9 9 17 18 14 25 24 8 8 11 12 11 9 8 7 7 11 17 19 18 19 15 6 6 10 10 6 7 9 4 2 6 3 6 8 12 20 21 18 18 20 20 20 24 25 17 19 19 14 2
9 10 12 14 15 17 19 19 18 19 13 9 9 11 12 12 14 14 15 21 16 16 21 22 23 17 30 28 21 22 25 29 25 20 17 16 17 13 13 16 16 15 7 15 19 17 17 17 16 13 12 10 7 5 21 24 18 16 18 18 11 14 11 6 3 7 4 4 4 7 11 11 21 3 11 20 25 26 29 30 23 19 16 16 15 16 13
10 11 13 15 16 18 20 20 20 20 17 9 10 15 14 15 17 17 17 16 16 19 18 21 26 24 24 27 24 21 23 25 24 24 17 20 16 13 15 17 21 10 15 20 23 20 13 12 10 11 9 9 7 7 11 18 17 13 12 16 19 12 11 6 4 6 4 4 7 6 15 14 2 1 6 14 22 23 15 15 15 11 12 17 21 28 24
11 13 14 16 18 19 20 21 21 20 20 15 13 14 14 14 17 18 16 14 15 18 21 18 23 24 31 31 25 21 20 23 24 21 16 14 19 19 12 11 7 13 17 20 17 18 10 8 8 8 2 5 4 5 1 1 1 7 13 11 12 22 12 9 4 1 10 7 12 12 7 10 12 9 8 13 12 10 15 16 20 17 17 19 23 22 15
11 13 15 17 18 21 21 22 21 22 21 21 14 16 14 12 13 12 9 13 16 17 22 24 23 23 27 26 26 21 20 20 20 17 3 6 12 8 10 7 16 17 16 16 9 6 4 6 6 8 5 11 9 7 3 5 1 3 2 2 0 10 17 10 13 3 5 8 2 2 7 10 21 12 4 6 4 8 8 6 18 12 20 19 17 19 17
13 14 15 17 19 21 22 22 21 21 21 24 16 14 12 11 9 8 10 14 16 19 20 22 28 22 23 22 27 25 19 18 16 11 7 5 3 4 2 15 14 17 9 5 5 10 7 10 10 12 10 12 6 7 3 3 3 1 3 4 3 2 2 9 15 7 5 5 10 10 13 21 9 8 9 10 13 15 10 6 15 20 16 13 18 20 17
14 14 16 17 19 21 21 21 21 21 22 23 14 10 10 9 8 11 13 11 18 16 17 23 26 26 18 16 17 18 16 16 17 15 12 12 9 9 5 10 12 15 11 10 6 7 7 6 7 7 1 6 9 7 6 6 5 4 2 4 5 7 7 7 5 5 10 12 9 12 6 13 5 7 6 13 14 17 12 4 17 5 18 18 17 20 17
13 15 16 17 20 20 21 19 21 22 21 23 13 7 6 4 9 10 8 8 10 2 4 4 27 20 22 19 20 12 8 8 11 5 9 5 6 10 10 8 9 4 10 12 8 9 10 7 13 9 9 3 5 9 12 9 10 13 15 13 7 6 0 5 16 12 8 10 6 3 9 5 4 7 10 14 17 16 10 19 13 7 12 15 19 18 17
14 15 16 17 20 20 19 19 20 22 21 20 9 3 8 9 10 14 5 7 12 10 3 4 3 14 5 9 13 8 8 19 15 9 8 6 4 13 16 5 7 10 4 10 11 9 11 5 2 4 7 1 2 12 7 11 13 7 14 8 3 4 5 1 3 6 10 10 7 10 8 7 9 0 16 14 11 8 22 5 2 6 5 10 15 19 18
15 16 16 17 19 20 20 19 21 22 22 20 10 5 4 8 12 13 16 10 7 7 3 3 1 11 4 15 15 15 14 17 16 15 16 14 7 14 11 10 3 4 5 7 12 4 10 12 10 3 7 10 8 5 6 8 2 12 8 18 18 17 13 13 13 4 5 3 9 0 12 7 15 15 4 4 10 9 4 3 0 1 6 11 7 6 4
15 16 16 17 19 20 20 21 22 22 23 23 13 4 6 9 7 3 9 16 14 14 2 3 6 7 3 5 4 13 21 18 16 15 11 12 14 16 17 14 12 7 9 10 12 11 7 10 7 4 3 7 6 4 12 11 1 5 13 16 10 12 12 8 9 12 15 13 11 15 9 8 18 22 14 15 10 3 7 8 4 0 5 8 8 5 9
16 17 17 18 19 21 21 22 22 22 25 24 19 4 5 7 5 6 12 14 10 7 5 3 2 10 10 7 7 7 1 10 10 8 17 15 8 4 1 14 17 6 5 5 4 2 2 4 3 4 7 4 1 12 12 10 9 5 3 4 11 12 18 15 18 14 12 15 18 2 2 12 12 15 8 14 12 5 6 5 10 8 3 3 6 10 7
17 18 18 18 20 21 21 22 22 21 23 26 16 3 2 7 6 7 14 18 10 9 4 4 2 5 2 5 5 5 2 3 1 6 13 18 6 1 3 13 7 2 1 1 12 9 8 11 10 4 4 1 11 4 2 4 7 4 11 8 1 5 7 3 5 6 2 5 3 1 1 3 8 3 2 12 15 4 2 4 9 4 7 10 10 9 11
18 19 19 19 19 20 21 22 23 21 22 23 17 7 4 4 6 3 13 9 11 10 5 7 5 5 3 5 7 8 6 5 5 3 5 7 17 2 3 3 2 2 1 4 3 10 6 5 5 3 8 6 7 6 11 7 7 8 8 3 4 4 4 2 5 2 10 12 11 6 6 2 8 7 1 3 1 5 4 3 3 5 6 8 1 11 12
18 19 20 20 21 21 21 21 22 22 22 23 19 8 3 5 8 7 9 13 7 11 6 2 7 2 2 3 2 3 2 4 4 3 2 3 11 14 11 7 5 7 9 6 1 9 3 7 1 3 11 6 11 12 7 11 5 6 11 9 6 5 5 7 3 9 15 19 9 8 4 3 5 7 3 3 4 2 4 3 3 3 3 4 3 5 6
18 20 20 21 21 22 22 22 21 20 19 20 16 8 7 7 10 5 5 9 6 7 10 5 1 3 2 2 4 3 8 6 5 0 1 3 3 3 12 7 3 5 7 3 4 8 5 4 3 2 9 4 3 5 8 6 4 5 12 12 6 4 8 9 8 8 7 3 2 1 5 0 1 3 4 5 8 9 7 6 5 4 7 6 3 2 7
19 19 20 20 21 22 22 23 22 19 17 13 8 7 6 7 11 13 8 2 8 6 5 5 4 1 2 7 1 4 4 6 2 3 5 5 5 7 4 14 11 4 8 4 3 6 4 3 4 6 6 4 6 3 4 4 7 8 7 3 5 11 15 9 8 8 7 16 13 12 8 4 6 9 16 13 9 8 8 4 3 4 6 7 7 3 3
18 19 20 20 21 22 22 23 22 20 15 8 3 5 5 8 9 11 8 8 1 7 9 8 7 6 4 4 5 4 7 5 1 5 8 6 5 10 11 10 13 10 4 5 3 2 3 10 9 1 3 2 7 1 1 1 5 2 2 10 13 17 17 13 15 16 18 10 9 13 11 7 9 17 15 10 7 7 8 10 10 6 4 7 10 8 4
17 18 19 20 20 21 21 23 23 22 14 3 2 3 5 4 9 15 15 12 3 11 11 9 5 5 5 3 3 8 8 7 5 9 10 9 7 5 9 8 6 8 10 6 3 3 4 2 4 7 4 4 6 4 4 4 6 11 13 13 13 4 8 19 20 16 11 7 17 13 11 12 7 8 11 11 8 8 9 8 3 6 7 6 5 7 10
16 17 18 18 19 20 20 21 23 24 16 2 3 2 2 3 8 14 17 10 7 1 9 8 7 1 3 6 5 4 5 8 5 13 13 10 9 7 4 7 5 2 4 5 8 7 2 5 1 2 2 3 4 5 5 3 5 9 1 6 13 2 4 7 2 12 10 3 7 7 7 2 2 1 2 3 6 9 8 8 7 8 6 7 7 4 5
15 16 17 18 19 19 18 17 19 22 17 6 3 5 7 6 7 12 19 12 8 3 6 6 7 2 4 1 2 6 7 6 6 10 10 7 6 5 2 3 4 2 5 2 5 4 5 4 3 0 2 1 3 7 7 7 6 3 6 10 13 10 6 6 3 2 7 8 7 6 6 4 1 3 1 2 5 6 4 3 2 6 8 5 5 6 6
14 15 15 17 18 18 17 15 15 13 10 13 13 7 3 1 5 12 15 11 6 5 7 11 5 3 1 1 2 1 3 3 1 2 4 3 5 5 8 6 3 4 4 5 3 4 2 1 3 5 4 2 5 4 4 5 9 8 3 6 4 4 4 7 5 4 5 9 13 8 3 1 2 9 7 4 4 2 6 6 5 7 8 7 6 6 6
14 15 16 17 17 17 17 16 13 8 3 8 12 9 5 17 19 15 9 7 5 4 1 6 8 2 3 4 0 6 5 2 4 3 4 4 3 3 4 4 3 5 5 5 5 4 1 3 2 5 2 1 3 3 4 7 6 1 0 2 3 5 7 4 5 5 6 3 1 10 10 11 8 3 4 6 5 7 8 9 7 8 10 11 11 10 9
17 18 18 18 17 15 14 15 15 11 7 4 5 8 10 21 17 18 9 2 4 2 4 5 6 6 2 2 4 2 3 3 2 2 4 5 2 3 2 3 2 5 6 5 1 4 2 2 3 4 2 1 0 4 4 3 1 1 1 3 3 6 7 8 5 6 3 3 4 3 3 7 10 8 7 8 8 5 6 8 9 10 8 10 8 8 8
19 20 20 19 17 12 8 9 8 7 4 3 1 3 10 25 19 12 7 1 4 4 4 4 2 8 5 3 3 1 1 3 4 3 5 1 3 3 1 5 4 5 1 2 4 1 3 1 3 5 6 1 3 2 2 3 3 1 2 4 3 8 8 8 2 3 3 3 6 7 7 10 12 8 7 6 7 6 9 6 6 13 10 7 8 6 6
20 20 20 16 10 5 2 6 7 6 5 3 6 12 24 21 11 3 6 6 5 4 5 1 3 3 3 11 7 2 1 4 2 3 2 3 3 3 3 3 5 2 1 3 3 1 3 2 2 2 1 4 3 0 2 2 4 4 3 4 5 4 3 7 11 7 6 7 8 7 9 7 11 10 8 6 6 5 6 8 4 8 12 9 6 5 5
19 15 15 9 6 5 5 1 1 3 1 9 14 21 18 8 0 1 5 4 6 3 6 3 6 4 3 2 2 2 1 5 1 4 3 4 4 1 3 4 5 2 4 3 3 3 2 1 4 4 3 3 0 2 3 1 4 4 4 3 2 2 9 11 11 15 14 11 10 8 8 12 9 7 9 8 6 5 8 8 6 9 10 9 6 6 5
14 10 7 6 6 5 3 3 2 10 18 18 13 3 7 8 3 4 5 6 4 5 6 5 6 2 3 3 5 2 3 1 2 4 2 0 3 3 1 4 2 3 4 2 1 1 2 5 3 4 2 1 1 5 5 3 3 4 5 4 4 5 7 9 9 15 16 12 9 10 9 10 10 5 10 8 7 8 6 4 4 5 6 6 5 5 5
9 4 6 4 3 2 1 7 9 20 12 2 3 2 3 2 4 5 4 2 3 6 5 6 4 3 3 5 3 3 3 4 3 1 4 2 3 1 1 5 1 4 0 3 2 0 3 2 2 3 3 1 4 5 5 6 7 7 6 6 5 5 5 6 4 5 9 9 11 7 10 15 16 10 7 10 8 7 6 7 8 7 7 6 5 5 6
7 8 4 3 3 3 5 9 12 7 2 2 4 4 2 3 5 2 2 4 3 2 3 5 1 1 3 3 2 4 6 4 4 3 4 2 2 4 2 3 1 4 2 3 2 3 4 4 1 4 4 3 6 7 7 7 9 9 8 8 8 8 8 11 11 10 14 12 10 9 9 9 9 11 11 10 10 10 8 8 7 7 7 7 5 7 6
4 2 3 2 4 3 5 6 6 4 3 3 3 3 2 4 2 0 2 3 3 1 0 0 3 5 4 4 4 6 5 3 2 2 3 4 2 3 4 2 1 5 0 2 2 4 2 4 3 3 4 5 6 6 7 8 8 8 9 10 8 8 10 12 11 8 11 12 11 11 11 12 12 10 9 9 10 10 8 8 8 7 7 7 8 5 3
5 3 3 3 3 3 5 3 4 2 2 1 3 2 1 1 1 4 1 3 2 2 4 2 3 2 4 4 2 0 1 0 1 2 2 4 4 4 2 1 3 4 2 3 2 2 2 4 4 4 3 5 7 8 8 9 10 10 11 11 11 10 11 13 14 13 11 12 11 10 10 13 13 11 9 10 11 10 9 9 10 9 9 6 4 4 5
4 3 2 2 3 3 1 3 4 3 2 3 3 2 3 3 2 1 1 1 1 2 2 1 1 1 0 0 2 2 2 1 2 3 5 2 1 4 4 2 2 4 1 1 3 2 4 3 3 2 4 5 7 8 8 8 7 8 9 11 12 11 11 13 12 12 11 11 10 10 8 14 14 11 9 11 12 12 9 8 7 6 5 5 5 5 5
3 3 3 3 2 2 2 2 2 3 3 2 2 2 1 3 4 4 2 3 5 2 3 2 3 2 4 6 3 3 3 3 3 2 4 1 3 2 3 4 1 3 3 4 2 5 3 3 3 4 3 4 7 10 10 10 9 7 10 13 13 13 13 13 11 14 14 12 12 11 10 10 10 9 11 12 12 11 9 8 6 6 5 5 6 7 6
2 4 3 2 2 3 2 2 3 3 3 2 2 1 1 3 0 1 2 2 2 3 4 3 4 5 5 4 1 2 3 1 4 4 0 2 4 3 3 1 0 4 3 2 2 1 3 4 3 4 5 7 9 10 10 9 9 8 5 8 13 13 12 12 11 10 9 10 9 9 10 8 10 11 11 10 9 9 9 9 6 5 6 6 5 7 7
5 0 1 3 4 4 2 1 2 2 2 2 0 1 1 2 1 2 2 2 3 5 5 5 4 4 5 3 3 1 4 3 4 2 1 2 4 2 1 0 3 4 2 3 3 2 1 4 4 3 5 6 7 8 9 8 9 8 11 11 10 11 11 11 10 10 9 8 7 9 9 9 9 9 10 8 8 8 8 7 6 5 3 7 7 7 6
2 2 2 1 3 1 2 2 1 1 1 1 0 1 1 2 2 1 1 2 3 4 5 5 2 1 5 3 3 3 4 2 4 2 3 4 2 0 3 3 1 1 4 1 0 2 2 3 2 3 3 4 5 5 5 5 7 8 8 7 8 9 10 10 9 10 8 8 9 9 8 8 8 7 8 9 9 8 7 7 7 6 6 7 6 5 5
1 1 2 3 1 0 4 1 1 3 2 1 1 2 4 3 2 4 5 4 5 4 5 3 3 3 5 3 4 3 2 2 3 3 1 1 2 5 2 4 1 1 1 3 2 1 4 2 2 4 5 5 5 6 8 9 9 9 8 7 6 7 7 8 9 9 9 9 8 8 7 7 7 7 9 9 8 8 7 7 6 6 6 6 6 6 6
3 3 3 2 1 2 0 2 2 3 4 3 1 3 5 6 3 5 6 5 4 4 4 2 1 3 2 1 3 3 3 3 4 1 2 4 2 0 2 2 1 2 2 1 2 3 3 2 3 5 6 7 5 4 4 6 8 9 9 9 8 6 5 5 7 7 5 5 5 6 6 6 6 7 7 8 10 8 7 7 7 6 6 6 5 4 5
4 4 7 5 3 1 3 2 2 4 5 6 6 6 6 4 5 4 5 7 5 5 4 4 1 3 0 2 2 2 1 2 1 1 4 2 0 0 3 3 2 3 2 2 2 2 2 3 3 3 3 5 7 7 4 3 4 6 7 8 8 8 7 6 6 6 7 6 6 5 4 5 5 5 6 7 6 5 5 7 6 7 6 5 6 7 5
2 5 3 1 1 1 4 3 1 1 5 5 6 5 5 4 3 5 6 6 8 4 5 3 0 2 2 3 2 3 1 1 5 3 2 1 0 2 0 3 0 1 3 3 3 2 2 2 2 2 2 2 3 5 6 7 6 4 4 4 4 5 6 7 6 5 5 6 6 6 10 8 5 3 3 4 4 5 6 7 9 8 6 5 5 5 7
3 4 2 1 2 3 2 1 2 5 1 2 2 3 4 4 5 6 6 5 3 6 2 1 2 2 3 2 1 2 1 5 0 1 5 2 2 1 1 2 2 2 2 2 1 2 0 1 1 3 3 3 2 2 3 5 5 6 6 5 3 4 3 6 6 6 5 6 7 8 8 7 5 6 6 6 5 6 9 7 6 7 6 5 4 4 3
Wind_Direction
214 218 224 231 227 226 226 234 237 254 232 139 176 167 222 209 233 119 171 153 157 156 191 170 184 202 211 184 211 174 186 183 181 188 220 220 57 122 188 190 173 267 165 168 159 161 169 175 191 186 187 186 173 161 142 144 160 125 76 83 199 97 107 100 39 34 306 322 297 333 284 137 287 283 89 123 189 182 167 157 181 167 203 157 276 264 254
226 223 228 228 239 239 236 241 256 258 237 173 145 199 231 226 218 282 314 175 155 167 187 181 191 203 203 202 204 185 197 178 180 198 193 209 171 189 167 178 247 173 170 161 170 171 145 219 186 67 134 153 195 149 146 151 161 166 188 168 191 127 231 117 116 81 346 343 350 334 329 199 226 165 183 178 128 133 145 95 87 165 212 170 140 237 260
222 229 234 235 233 237 243 249 259 257 244 219 163 217 214 254 205 195 194 203 180 185 186 184 184 196 194 187 203 186 209 199 191 188 197 199 194 176 210 190 161 175 174 175 173 182 177 157 204 90 120 114 306 154 158 162 167 174 142 120 102 83 169 147 149 156 170 189 198 206 204 197 176 218 156 197 182 169 136 187 167 204 222 169 196 238 223
235 237 242 242 248 246 248 254 252 250 244 232 206 227 225 209 255 161 200 191 207 212 198 200 188 188 183 189 200 190 201 192 198 188 208 199 191 198 177 172 161 154 160 170 172 182 6 148 173 139 152 127 207 177 160 168 164 159 134 144 138 119 171 179 171 175 191 199 182 56 83 75 187 206 186 193 188 176 161 96 119 217 194 168 226 227 241
237 245 250 257 261 263 259 264 266 259 248 233 216 230 221 213 217 160 203 162 206 209 196 203 200 200 173 191 178 194 196 187 198 187 201 207 195 100 181 144 152 205 161 168 173 182 106 92 136 157 129 12 106 158 164 162 155 143 131 166 105 113 176 217 193 200 172 98 168 193 151 176 196 160 192 175 166 180 180 186 218 163 102 231 233 209 230
257 261 266 271 276 276 278 277 276 264 253 239 221 231 185 234 196 184 200 220 181 191 203 198 207 201 183 194 172 187 187 191 188 188 223 164 195 177 176 178 181 167 174 164 173 177 153 143 163 148 130 109 100 118 201 171 174 153 157 176 156 157 195 202 165 198 61 27 139 148 160 181 171 179 174 173 185 178 193 215 220 130 204 228 219 179 226
277 277 281 281 284 284 287 286 282 273 259 244 219 237 199 225 292 208 198 245 203 196 190 188 199 201 190 191 186 184 188 192 188 174 174 193 192 194 167 190 180 178 174 173 171 170 160 203 168 163 161 156 149 147 148 273 200 163 156 182 178 146 235 179 179 148 54 15 25 166 150 136 146 174 182 190 175 196 204 218 214 187 223 238 180 208 233
292 297 296 298 293 290 286 287 282 276 270 246 235 231 230 204 200 210 206 224 236 226 201 189 187 201 189 193 187 183 187 190 188 178 170 179 194 186 195 182 181 178 173 179 182 186 192 181 179 183 164 166 163 171 176 161 191 182 172 170 277 171 246 117 128 90 33 353 22 57 138 150 164 183 177 188 200 210 215 220 220 214 257 255 251 284 272
302 302 305 299 301 296 293 286 281 273 265 237 226 236 218 239 215 202 211 212 220 218 209 191 188 189 189 195 178 185 183 191 183 190 190 174 180 188 191 177 173 178 181 187 195 193 199 189 188 176 167 173 184 151 217 151 155 176 161 180 105 151 202 29 117 147 210 328 89 106 82 108 157 178 195 202 205 213 221 223 211 190 227 236 243 265 254
304 307 301 304 299 298 292 291 286 278 259 232 218 242 208 227 234 233 224 231 202 200 198 198 186 195 186 182 175 182 185 179 171 183 212 201 186 188 187 177 168 178 184 195 201 197 199 193 161 152 159 94 79 93 133 151 154 155 162 115 141 131 131 138 146 161 219 283 167 120 114 72 284 227 213 205 203 208 225 230 218 212 219 217 217 237 232
312 309 304 303 300 295 294 289 287 279 252 235 230 241 222 219 208 208 216 232 222 198 188 194 194 181 162 183 174 180 179 181 177 180 185 197 219 203 174 169 173 179 197 203 185 90 91 95 106 90 92 129 140 138 143 152 161 163 158 154 162 143 146 164 159 178 170 183 150 129 94 204 225 224 208 175 187 201 210 220 218 221 202 217 220 244 160
313 307 304 302 297 295 292 291 288 280 260 238 233 249 236 234 218 202 204 213 216 191 193 192 185 162 183 177 174 177 179 181 184 186 176 189 189 166 165 184 176 195 186 105 110 113 99 86 77 67 64 69 68 140 152 164 179 174 166 161 163 163 146 147 152 105 152 206 137 120 205 227 238 75 138 179 196 198 206 220 221 222 221 243 264 262 244
312 307 304 299 296 294 294 294 292 284 272 253 244 247 245 226 222 203 201 204 205 192 194 181 179 179 170 174 178 180 179 179 183 191 185 179 184 180 180 178 191 184 133 122 120 114 111 108 79 102 89 71 62 93 165 171 170 174 191 163 155 163 150 142 79 124 60 108 157 171 216 230 3 202 184 193 202 209 205 243 244 229 211 218 231 236 236
314 309 302 299 297 296 298 296 295 286 279 274 257 251 247 211 215 199 198 193 200 187 186 171 176 172 174 177 176 176 174 185 189 187 190 184 173 186 187 187 165 130 141 126 112 112 115 121 120 107 81 71 73 111 279 38 344 196 182 185 175 160 159 153 152 212 156 200 188 218 357 336 269 241 216 185 183 160 174 215 240 210 214 207 227 240 242
308 306 302 302 301 301 303 302 300 293 289 280 267 259 228 207 217 208 192 196 184 184 178 183 177 168 169 176 174 172 183 182 184 196 185 145 184 187 170 145 149 150 143 130 137 111 139 130 128 124 151 145 161 184 115 187 269 33 306 352 179 186 166 175 154 233 132 131 216 332 269 259 245 225 62 117 130 135 166 179 263 218 214 208 217 232 231
311 308 307 305 307 307 308 306 303 298 293 282 269 250 219 201 205 225 226 200 166 181 193 175 168 165 172 178 176 173 176 179 181 155 161 153 136 97 270 151 153 146 140 88 123 130 147 136 154 149 172 178 158 120 226 155 171 314 53 122 86 39 89 166 170 159 104 140 182 201 207 232 242 119 159 150 135 141 113 142 259 246 192 192 202 227 229
313 311 312 311 311 309 306 307 307 305 299 285 268 233 228 184 185 203 208 198 179 181 168 178 174 167 163 166 169 181 176 179 167 173 167 172 163 134 142 154 157 151 151 134 148 132 135 126 162 153 82 148 147 175 126 163 152 152 88 84 113 139 153 128 90 148 193 181 190 216 213 242 221 181 152 158 131 118 119 85 254 271 135 188 195 214 221
317 314 317 315 312 313 309 313 315 313 305 293 281 226 235 209 206 230 200 175 143 356 322 211 171 178 182 170 170 154 140 142 166 148 161 183 149 144 155 147 160 221 163 158 155 149 155 150 170 173 165 213 143 132 182 157 178 177 179 173 151 151 133 189 191 186 188 188 227 325 275 254 189 177 146 140 144 125 130 206 234 133 170 177 188 198 207
323 321 320 319 315 315 317 325 324 320 316 310 303 253 253 241 246 232 153 134 161 156 205 355 293 172 156 154 174 157 176 165 152 137 116 105 190 160 146 160 147 172 217 164 158 162 163 184 143 151 136 251 195 187 136 174 193 176 148 114 114 148 156 292 88 174 177 196 189 230 265 231 159 281 149 154 110 191 209 218 135 140 165 197 175 193 204
325 323 324 322 322 324 327 335 333 332 329 328 326 224 251 258 248 234 158 141 69 110 33 13 339 154 307 161 154 163 152 170 176 158 163 156 164 135 125 155 285 106 133 152 167 176 165 181 177 150 164 171 201 137 155 202 104 160 172 182 178 178 172 186 191 162 58 72 209 276 254 242 120 125 116 264 176 223 182 173 209 224 176 161 201 178 143
330 328 330 329 330 330 334 339 342 345 342 343 344 251 277 266 280 324 121 122 132 114 58 348 48 58 59 98 159 172 167 168 163 165 170 146 167 151 172 172 159 157 175 165 165 181 169 174 157 171 201 153 198 96 185 180 203 285 166 179 197 165 173 180 200 177 177 185 188 211 222 107 146 133 169 202 192 213 161 126 176 281 170 158 152 191 180
335 334 337 336 334 335 341 344 345 356 356 355 353 273 244 285 316 42 79 83 79 64 115 194 110 91 73 78 88 33 24 159 169 158 151 143 193 180 161 156 171 161 175 142 92 30 23 125 64 124 156 166 107 196 172 138 181 187 343 134 189 194 198 182 188 188 184 194 208 141 173 154 185 165 185 169 194 178 208 176 156 172 227 224 135 178 195
339 338 343 342 341 341 345 346 344 360 4 1 356 307 320 305 336 297 104 83 77 86 44 27 68 82 98 87 67 32 107 31 105 119 147 138 176 31 142 149 197 234 151 165 173 160 165 151 182 148 83 148 169 127 22 172 167 150 176 218 182 208 189 99 101 230 323 307 214 195 134 210 217 326 219 164 190 228 130 174 148 216 167 167 169 183 178
344 343 345 346 345 345 348 346 345 352 2 1 355 309 312 327 322 334 82 90 112 113 49 15 52 27 12 356 334 354 22 19 10 293 321 167 150 247 331 296 128 73 266 220 177 139 172 110 194 148 172 206 108 145 166 217 214 186 160 179 230 230 149 114 178 205 169 239 216 171 202 209 198 210 298 275 214 172 171 179 224 191 166 188 222 172 173
346 346 347 349 349 351 351 349 346 349 357 1 351 328 307 325 351 335 112 122 133 123 121 56 31 34 300 276 285 350 345 328 319 340 83 357 160 153 169 182 162 158 179 171 143 90 72 115 164 154 189 227 160 197 197 172 260 165 173 199 122 237 205 159 195 157 182 226 195 185 193 194 203 184 154 171 221 179 196 199 197 185 173 165 143 114 118
349 349 349 350 352 356 356 352 348 349 355 1 357 355 359 13 333 345 68 74 83 94 113 110 69 354 311 34 17 294 299 322 312 212 184 156 150 221 138 109 42 41 91 76 109 139 123 97 117 133 175 230 201 186 185 209 143 169 193 193 180 120 116 203 178 177 235 325 2 50 67 44 247 254 259 227 199 194 198 193 160 174 147 140 93 53 169
348 350 349 352 352 355 358 356 349 346 352 4 358 332 348 24 30 34 44 307 115 52 31 100 140 298 31 68 14 325 328 332 335 117 91 72 113 93 109 143 125 65 97 60 45 124 91 108 145 183 185 198 143 172 138 97 146 150 197 197 149 124 188 187 134 195 191 210 201 138 137 215 232 214 214 214 213 196 192 144 144 166 149 156 132 56 39
350 349 353 353 354 356 358 357 351 344 341 1 359 295 298 41 35 31 36 32 0 134 149 129 129 169 180 69 0 343 350 358 10 107 85 72 93 136 140 145 135 131 109 92 88 83 106 154 183 152 91 109 111 293 348 98 81 62 196 192 186 185 187 162 186 190 216 195 129 178 191 206 205 196 201 203 190 176 186 190 198 189 151 160 138 126 101
348 350 354 355 356 0 1 1 357 352 345 352 261 311 264 57 39 23 19 2 7 96 89 92 68 57 109 181 3 357 356 3 58 91 89 72 78 91 124 132 137 142 141 130 95 90 111 119 90 140 165 201 100 165 121 161 181 199 209 192 188 244 170 179 191 198 228 164 175 175 169 190 202 198 195 199 171 166 200 214 166 153 160 168 155 156 142
350 352 356 358 1 1 2 6 5 2 353 327 47 354 358 356 20 22 357 7 3 28 111 126 108 125 3 23 352 354 350 356 45 75 71 72 68 62 55 101 85 69 106 154 161 159 186 129 261 321 298 359 118 159 167 178 187 231 297 153 191 126 189 196 169 183 207 195 166 174 167 105 1 261 213 165 157 169 184 198 173 152 161 163 145 154 151
351 354 358 1 4 3 2 8 12 8 4 5 23 43 29 22 338 1 345 345 339 86 86 62 99 135 62 35 45 349 344 344 38 73 70 68 80 70 13 72 57 77 93 29 50 122 116 125 117 64 328 311 128 152 172 166 214 294 227 183 178 177 172 166 78 62 111 113 104 95 79 78 81 76 56 162 176 159 126 84 78 135 146 136 139 140 144
352 354 358 360 0 3 5 4 12 13 22 37 47 46 54 20 286 332 333 328 334 60 86 110 57 21 105 14 307 284 333 312 314 38 48 14 49 24 44 53 90 13 91 106 158 79 68 133 94 152 144 165 87 108 118 153 198 232 176 161 177 132 122 121 104 95 95 131 116 71 83 100 258 154 203 183 141 90 110 111 108 106 102 101 91 81 91
355 356 358 356 357 1 4 10 13 31 28 89 101 105 29 358 358 354 334 326 52 54 12 84 110 132 89 209 337 354 352 335 23 28 50 3 44 358 51 9 25 52 354 67 11 105 199 104 173 110 213 57 114 142 140 196 217 258 28 117 104 115 110 87 95 102 110 17 84 146 185 191 193 138 98 93 94 114 122 118 124 117 114 108 99 97 88
354 350 349 344 346 355 359 9 18 19 37 27 3 354 344 338 353 356 353 16 84 85 59 93 109 107 140 338 63 318 48 81 67 359 82 1 314 46 75 57 358 82 344 88 201 82 338 84 99 152 51 359 14 101 196 244 257 246 91 85 104 100 106 94 85 90 32 32 39 53 92 94 92 110 84 83 84 75 103 121 128 110 105 108 109 114 129
349 347 344 340 339 345 346 17 20 29 11 350 333 282 326 330 341 349 349 70 72 19 63 32 77 119 101 9 81 256 239 36 65 332 102 351 353 91 26 74 339 94 269 83 49 95 125 208 192 97 183 198 70 210 240 188 196 200 124 109 123 118 97 89 41 31 69 91 86 81 100 116 108 89 101 98 103 122 120 119 129 120 110 112 124 131 132
345 343 338 336 343 353 325 23 27 3 23 3 296 304 314 317 326 326 6 28 73 122 84 114 64 79 123 141 150 216 82 56 35 38 34 133 39 12 58 124 82 330 324 54 137 48 127 258 91 149 234 111 200 171 263 218 169 157 171 151 176 142 168 159 138 117 90 81 87 92 86 78 99 111 104 103 104 103 111 108 105 110 121 124 125 122 100
341 343 341 3 10 43 23 351 341 81 267 284 294 301 305 318 161 46 7 33 20 45 86 111 68 45 72 140 79 307 118 128 191 61 18 59 125 346 53 67 101 146 52 31 44 104 258 10 98 88 32 129 140 327 296 190 151 153 142 141 122 126 107 109 127 115 94 74 74 77 93 102 97 102 103 101 108 109 102 107 127 129 129 131 129 124 137
346 17 31 11 27 34 348 355 317 309 319 313 325 343 8 23 30 354 10 23 347 36 18 50 64 330 325 62 79 277 91 136 12 123 79 288 74 351 272 90 180 114 96 148 241 167 51 40 52 99 90 68 35 25 10 41 64 67 80 89 95 99 110 124 133 113 105 95 82 103 95 94 102 103 107 96 85 84 75 73 59 64 90 98 110 119 111
26 19 37 23 64 11 329 279 308 322 315 285 21 72 10 1 28 29 354 344 14 21 341 54 21 332 357 63 62 354 83 157 111 14 116 279 100 16 13 96 280 81 336 58 297 103 70 43 48 77 89 23 34 22 12 53 56 43 45 38 53 66 80 69 40 105 130 141 148 156 145 142 136 125 107 100 85 72 75 73 69 64 78 86 82 79 75
14 26 9 357 27 271 273 280 320 333 334 39 343 73 51 348 49 18 327 38 17 3 10 41 314 26 353 54 74 36 338 46 87 91 134 87 332 124 220 84 272 91 127 122 212 45 126 131 221 104 75 58 65 36 34 36 51 27 23 23 38 50 64 77 72 65 81 78 78 81 71 83 100 120 125 118 112 98 77 65 66 70 73 73 63 65 54
9 350 6 346 283 289 283 308 340 45 44 25 18 16 37 21 30 234 15 51 48 314 52 235 354 19 15 22 16 79 333 36 17 51 84 77 250 86 47 111 245 89 343 104 280 70 89 77 56 78 93 48 36 28 36 35 28 23 21 18 23 44 64 63 55 56 83 83 73 66 65 75 80 83 89 98 101 100 96 91 77 71 70 67 63 54 15
310 297 261 274 266 286 332 7 46 24 8 80 100 5 340 248 328 22 56 68 6 332 341 12 8 27 354 7 8 47 27 116 107 53 95 54 341 98 149 33 1 106 138 239 95 51 76 97 106 86 58 29 4 9 16 36 22 19 12 9 25 28 44 65 65 44 56 82 82 73 67 73 70 62 68 90 93 94 95 93 85 63 62 60 53 42 24
353 2 74 38 12 349 44 29 337 76 51 0 26 36 351 46 7 65 336 4 313 69 279 10 227 216 58 322 29 51 84 334 49 356 64 85 15 52 79 40 51 78 210 16 59 78 70 110 109 108 58 21 9 4 7 6 16 43 30 25 31 33 49 59 61 60 44 57 65 69 68 69 64 64 57 77 93 83 59 59 62 75 62 65 59 48 29
344 23 28 344 40 300 53 11 318 56 35 24 57 83 349 33 330 11 41 343 330 357 343 19 336 45 40 349 52 359 9 25 69 88 60 355 69 25 57 53 87 260 31 40 24 78 115 57 52 87 55 21 12 11 1 356 353 10 33 31 32 40 52 59 45 60 61 57 64 69 64 66 75 61 47 42 42 78 88 67 43 58 67 72 62 48 27
52 358 29 17 33 305 51 353 356 82 53 331 47 141 123 104 200 2 104 323 13 290 326 24 16 53 48 306 37 24 42 64 318 82 338 34 64 27 72 97 272 30 71 92 49 359 31 94 84 53 13 8 4 357 357 356 352 356 19 29 27 23 29 39 46 54 51 47 43 55 59 58 69 66 56 57 48 40 55 61 22 40 52 59 59 52 28
57 128 11 63 24 355 79 75 9 46 27 47 11 215 116 322 97 73 359 345 302 335 17 356 358 58 56 344 88 17 360 36 52 19 50 38 81 35 266 301 60 73 38 44 67 102 128 97 71 34 15 1 352 350 360 357 1 5 42 40 14 19 26 36 41 50 48 49 50 60 71 63 70 77 72 61 58 54 50 43 35 28 33 67 54 57 37
50 5 85 120 83 304 54 81 1 13 348 331 297 205 280 313 260 304 280 342 303 307 284 268 262 353 89 346 26 15 36 30 74 313 59 45 93 250 19 75 48 6 108 72 319 218 164 90 61 36 7 346 343 345 354 11 14 33 47 49 35 26 19 28 31 38 27 43 56 56 58 64 70 80 94 80 59 53 49 46 37 35 50 67 68 69 60
94 245 81 81 169 47 56 13 132 129 145 144 278 293 273 257 9 3 350 343 281 292 319 349 26 359 30 312 71 106 31 4 72 354 93 153 52 41 22 43 28 278 203 139 175 39 79 49 348 343 348 0 355 356 6 13 14 25 36 49 52 50 32 29 33 27 20 29 35 47 55 52 54 64 69 85 82 57 46 45 44 42 51 57 62 63 62
103 65 60 123 155 103 151 320 36 60 10 25 36 52 21 30 30 338 332 328 347 323 304 40 110 80 31 320 59 25 21 331 78 271 33 30 86 205 117 149 110 63 282 83 56 50 45 4 324 338 360 5 9 8 9 17 15 14 18 19 23 23 29 43 46 40 32 35 40 46 42 47 58 62 74 72 73 58 45 46 49 49 46 41 34 37 48
43 22 28 24 30 11 292 233 75 38 355 15 23 11 355 28 7 345 358 346 334 320 295 237 266 86 138 80 24 27 21 338 121 36 57 26 87 232 68 48 244 152 117 26 40 51 25 350 344 333 344 5 14 14 360 337 21 20 11 8 6 15 18 22 30 33 33 34 34 48 54 59 54 59 63 70 90 110 83 56 47 44 37 38 30 20 41
42 91 122 265 91 284 336 67 16 5 18 7 359 342 3 342 336 307 357 334 319 326 34 67 335 78 54 29 50 48 277 192 50 44 114 91 268 77 97 128 162 58 79 64 51 19 354 2 10 320 312 310 6 7 12 8 358 351 349 352 356 17 19 31 32 32 28 32 24 30 33 34 24 30 48 87 72 65 66 54 36 26 9 22 29 30 27
41 45 14 346 48 63 331 265 39 68 75 304 328 292 10 326 330 304 335 312 305 64 65 272 69 50 59 78 195 191 9 42 97 78 47 347 36 114 195 188 102 57 14 51 51 32 64 232 59 359 329 285 301 315 342 352 12 17 12 7 15 36 33 28 24 16 17 28 27 28 19 22 25 34 51 63 56 51 42 19 358 5 3 7 6 11 28